Longview, TX

5:59 AM CDT on October 01, 2016 (GMT -0500)
Gregg County

Weather History for KGGG - May, 2014

Change the Weather History Date:

Sunday, May 11, 2014

  Actual Average Record
Temperature  
Mean Temperature 81 °F 72 °F  
Max Temperature 89 °F 83 °F 95 °F (1939)
Min Temperature 73 °F 61 °F 45 °F (1924)
Degree Days  
Heating Degree Days 0 0  
Month to date heating degree days 10 8  
Since 1 July heating degree days 2598 2257  
Cooling Degree Days 16 7  
Month to date cooling degree days 80 67  
Year to date cooling degree days 190 190  
Growing Degree Days 30 (Base 50)    
Moisture  
Dew Point 69 °F    
Average Humidity 70    
Maximum Humidity 87    
Minimum Humidity 53    
Precipitation  
Precipitation T in 0.14 in 4.24 in (2015)
Month to date precipitation 2.62 1.75  
Year to date precipitation 11.66 16.68  
Snow  
Snow 0.00 in - - ()
Month to date snowfall 0.0  
Since 1 July snowfall 0.3  
Snow Depth 0.00 in    
Sea Level Pressure  
Sea Level Pressure 29.84 in    
Wind  
Wind Speed 12 mph (SSE)    
Max Wind Speed 22 mph    
Max Gust Speed 28 mph    
Visibility 9 miles    
Events      
T = Trace of Precipitation, MM = Missing Value Source: NWS Daily Summary

Daily Weather History Graph

Daily Weather History Graph

Search for Another Location

Airport or City:

Trip Planner

Search our weather history database for the weather conditions in past years. The results will help you decide how hot, cold, wet, or windy it might be!

Date:

Astronomy

May. 11, 2014 Rise Set
Actual Time 6:23 AM CDT 8:07 PM CDT
Civil Twilight 5:56 AM CDT 8:34 PM CDT
Nautical Twilight 5:24 AM CDT 9:06 PM CDT
Astronomical Twilight 4:50 AM CDT 9:40 PM CDT
Moon 5:14 PM CDT (5/11) 4:17 AM CDT (5/11)
Length of Visible Light 14h 37m
Length of Day
13h 43m
Waxing Gibbous, 89% of the Moon is Illuminated
May 11
Waxing Gibbous
May 14
Full
May 21
Last Quarter
May 28
New
Jun 5
First Quarter

Hourly Weather History & Observations

Time (CDT) Temp. Heat Index Dew Point Humidity Pressure Visibility Wind Dir Wind Speed Gust Speed Precip Events Conditions
12:53 AM 73.0 °F - 68.0 °F 84% 29.87 in 10.0 mi SSE 5.8 mph - N/A   Clear
1:34 AM 73.4 °F - 69.8 °F 88% 29.88 in 10.0 mi SSE 8.1 mph - N/A   Mostly Cloudy
1:53 AM 73.0 °F - 69.1 °F 87% 29.86 in 10.0 mi SSE 8.1 mph - N/A   Overcast
2:34 AM 73.4 °F - 69.8 °F 88% 29.87 in 10.0 mi SE 6.9 mph - N/A   Overcast
2:53 AM 73.0 °F - 69.1 °F 87% 29.86 in 10.0 mi SSE 5.8 mph - N/A   Overcast
3:05 AM 73.4 °F - 69.8 °F 88% 29.87 in 9.0 mi SE 5.8 mph - N/A   Overcast
3:53 AM 73.0 °F - 69.1 °F 87% 29.85 in 9.0 mi SE 6.9 mph - N/A   Mostly Cloudy
4:53 AM 73.0 °F - 70.0 °F 90% 29.84 in 7.0 mi SE 8.1 mph - N/A   Mostly Cloudy
5:23 AM 73.4 °F - 69.8 °F 88% 29.85 in 7.0 mi SE 9.2 mph - N/A   Overcast
5:36 AM 73.4 °F - 69.8 °F 88% 29.85 in 7.0 mi SE 10.4 mph - N/A   Overcast
5:44 AM 73.4 °F - 69.8 °F 88% 29.85 in 7.0 mi SE 9.2 mph - N/A   Overcast
5:53 AM 73.0 °F - 70.0 °F 90% 29.83 in 7.0 mi SE 9.2 mph - N/A   Overcast
6:17 AM 73.4 °F - 69.8 °F 88% 29.84 in 8.0 mi SE 10.4 mph - N/A   Overcast
6:53 AM 73.9 °F - 70.0 °F 87% 29.83 in 7.0 mi SE 11.5 mph 19.6 mph N/A   Overcast
7:00 AM 73.4 °F - 69.8 °F 88% 29.85 in 7.0 mi SE 12.7 mph - N/A   Overcast
7:53 AM 75.0 °F - 70.0 °F 84% 29.86 in 9.0 mi South 11.5 mph - N/A   Overcast
8:00 AM 75.2 °F - 69.8 °F 83% 29.88 in 10.0 mi SSE 13.8 mph 21.9 mph N/A   Overcast
8:53 AM 77.0 °F - 69.1 °F 76% 29.87 in 10.0 mi SSE 10.4 mph 19.6 mph N/A   Mostly Cloudy
9:53 AM 79.0 °F - 68.0 °F 69% 29.88 in 10.0 mi SSE 10.4 mph - N/A   Mostly Cloudy
10:25 AM 80.6 °F 83.2 °F 68.0 °F 65% 29.89 in 10.0 mi South 17.3 mph 23.0 mph N/A   Mostly Cloudy
10:53 AM 82.0 °F 84.9 °F 68.0 °F 62% 29.88 in 10.0 mi South 13.8 mph 27.6 mph N/A   Mostly Cloudy
11:53 AM 84.0 °F 87.8 °F 69.1 °F 61% 29.88 in 10.0 mi SSE 18.4 mph 24.2 mph N/A   Mostly Cloudy
12:53 PM 84.0 °F 87.8 °F 69.1 °F 61% 29.86 in 10.0 mi South 10.4 mph - N/A   Overcast
1:53 PM 84.9 °F 88.8 °F 69.1 °F 59% 29.83 in 10.0 mi South 11.5 mph 20.7 mph N/A   Mostly Cloudy
2:53 PM 86.0 °F 90.1 °F 69.1 °F 57% 29.81 in 10.0 mi SSE 12.7 mph 21.9 mph 0.00 in   Scattered Clouds
3:53 PM 88.0 °F 92.9 °F 70.0 °F 55% 29.79 in 10.0 mi SSE 15.0 mph - N/A   Scattered Clouds
4:53 PM 87.1 °F 90.6 °F 68.0 °F 53% 29.76 in 10.0 mi SSE 11.5 mph 20.7 mph N/A   Scattered Clouds
5:53 PM 88.0 °F 91.4 °F 68.0 °F 51% 29.76 in 10.0 mi SSE 18.4 mph - N/A   Clear
6:53 PM 86.0 °F 89.4 °F 68.0 °F 55% 29.75 in 10.0 mi SSE 12.7 mph - N/A   Clear
7:53 PM 82.9 °F 85.8 °F 68.0 °F 60% 29.76 in 10.0 mi SSE 9.2 mph - N/A   Scattered Clouds
8:53 PM 80.1 °F 82.7 °F 68.0 °F 67% 29.78 in 10.0 mi SE 8.1 mph - N/A   Partly Cloudy
9:53 PM 79.0 °F - 69.1 °F 72% 29.79 in 10.0 mi SSE 13.8 mph 23.0 mph N/A   Clear
10:53 PM 78.1 °F - 69.1 °F 74% 29.81 in 10.0 mi SSE 17.3 mph 23.0 mph N/A   Clear
11:23 PM 78.8 °F - 69.8 °F 74% 29.83 in 10.0 mi South 11.5 mph - N/A   Mostly Cloudy
11:44 PM 77.0 °F - 69.8 °F 78% 29.83 in 10.0 mi SSE 10.4 mph 19.6 mph N/A   Scattered Clouds
11:53 PM 77.0 °F - 70.0 °F 79% 29.81 in 10.0 mi South 12.7 mph 19.6 mph N/A   Partly Cloudy